RH
8 7 7 6 5 5 4 3 3 2 2 2 3 3 3 3 3 4 4 4 4 4 4 4 4 4 3 3 3 3 3 3 3 3 3 2 2 2 2 3 4 5 5 5 5 8 12 14 17 18 20 21 22 23 25 28 31 33 35 34 36 39 44 47 56 71 73 74 77 84 96 97 96 97 90 83 78 72 69 61 50 43 34 27 28 26 23 24
10 9 9 9 8 7 6 6 5 4 3 3 3 2 2 3 3 4 4 4 4 4 4 4 4 4 4 4 3 4 4 3 4 4 4 3 3 2 2 2 2 4 4 5 4 5 7 10 14 15 16 18 18 19 22 26 28 29 31 31 32 33 38 41 49 66 75 72 74 84 92 97 99 96 90 83 78 78 77 69 57 51 41 30 30 27 23 23
9 9 10 10 10 9 9 8 7 6 5 5 4 3 3 2 2 3 3 3 4 4 4 4 4 4 4 4 4 4 4 4 4 4 4 3 3 3 2 2 2 2 3 4 4 4 4 6 9 12 14 15 15 16 17 22 25 26 28 28 28 28 30 34 40 56 69 71 73 82 89 95 98 95 91 84 81 82 77 71 62 58 47 31 32 29 23 24
7 7 8 8 9 10 10 10 9 9 8 7 6 5 4 3 3 2 3 3 3 4 3 4 4 4 4 4 4 4 4 4 4 4 4 4 4 4 3 3 2 2 2 2 3 3 3 4 4 7 10 12 13 14 15 18 21 24 26 26 25 25 26 28 34 45 60 70 71 73 83 95 98 98 95 86 88 86 75 68 59 55 46 32 33 31 24 24
6 6 6 6 7 7 8 9 10 10 10 9 8 7 6 5 4 3 3 2 3 3 3 4 4 4 4 4 4 4 4 4 4 4 4 4 4 4 3 3 3 2 2 2 2 3 3 3 3 4 5 7 10 13 15 16 17 20 23 25 25 26 26 28 33 40 50 60 66 68 76 92 99 100 97 89 89 86 75 67 58 54 44 31 32 31 25 24
6 6 6 6 6 6 6 7 8 9 10 10 10 10 9 7 6 5 4 3 3 3 3 3 3 4 3 4 4 3 4 3 4 4 4 4 4 4 4 4 3 3 2 2 2 2 2 3 3 3 4 4 7 10 13 14 15 16 18 19 22 27 28 30 34 39 45 46 53 64 73 88 97 97 96 91 90 84 76 68 58 55 44 32 32 28 25 24
6 6 5 5 5 5 5 5 6 7 7 8 9 10 10 10 9 7 6 5 4 3 3 3 3 4 3 3 4 3 4 3 3 4 4 4 4 4 4 4 4 4 3 3 2 2 2 2 3 3 3 3 5 7 9 13 15 15 16 16 18 23 25 27 29 35 42 39 43 56 66 85 96 97 96 94 94 88 82 72 58 52 43 34 34 27 23 23
5 5 5 4 4 4 4 4 5 5 6 6 7 8 10 11 11 11 9 7 6 5 4 4 4 4 4 3 3 3 4 4 4 4 4 4 4 4 4 4 4 4 4 3 3 2 2 2 2 2 2 3 3 5 7 10 14 15 16 16 16 18 19 21 23 28 33 35 46 57 64 83 93 91 93 95 97 91 85 78 64 53 43 36 33 27 24 23
5 4 4 4 4 3 3 3 3 4 4 5 5 6 7 9 11 13 12 10 8 7 6 5 5 5 4 4 3 4 3 4 4 3 4 3 4 4 4 4 4 5 4 4 4 3 3 2 2 2 2 3 3 4 5 7 10 11 11 12 12 13 14 15 17 22 26 33 48 61 65 77 86 84 87 93 95 92 87 83 75 61 46 38 34 27 24 23
5 4 4 4 3 3 3 3 3 3 3 4 4 5 6 7 8 12 14 14 12 9 8 6 6 6 6 5 4 4 4 4 4 3 4 4 4 4 4 4 4 4 4 5 5 5 4 3 2 2 2 2 2 3 3 5 6 6 6 7 8 10 12 13 13 16 25 33 45 61 68 72 80 85 90 93 92 94 91 84 81 70 52 43 37 28 23 23
4 4 4 4 3 3 3 3 3 3 3 3 3 4 5 6 7 9 12 15 15 13 11 8 8 7 7 7 6 6 5 5 4 3 3 3 4 4 4 4 4 4 4 5 6 5 4 3 3 2 2 2 2 2 2 4 3 3 4 5 7 8 12 14 13 15 23 32 40 54 63 66 76 83 89 92 90 94 92 82 77 70 58 51 44 32 24 23
5 4 4 4 4 4 3 3 3 3 3 3 3 3 4 5 7 9 11 14 17 17 15 11 10 9 8 8 8 8 7 6 6 4 4 4 4 4 4 4 4 4 4 6 6 6 5 4 4 3 3 2 2 2 2 3 2 2 2 3 5 6 12 16 16 16 21 33 39 44 53 60 69 76 82 86 88 95 96 88 80 73 63 55 51 41 28 24
5 4 4 4 4 4 4 4 4 3 3 3 3 3 3 4 8 10 12 14 17 19 19 16 13 11 10 9 9 9 9 9 8 6 5 5 4 3 4 3 4 4 4 5 5 6 6 5 5 3 3 3 2 2 2 2 2 2 2 2 3 4 13 19 18 16 21 38 39 39 50 56 66 77 80 79 81 91 97 94 88 81 70 57 54 49 37 30
4 4 3 3 3 3 3 4 4 4 4 3 3 3 3 5 9 11 13 17 19 21 23 22 18 14 12 11 10 10 10 10 10 9 7 6 5 4 4 3 4 4 4 5 4 5 6 6 6 4 4 3 3 2 2 3 2 3 2 2 2 3 15 22 20 16 21 38 40 41 50 52 69 84 80 76 75 81 91 95 89 82 73 61 56 53 44 36
3 3 2 2 2 2 2 3 4 4 4 4 4 3 3 5 9 11 13 20 22 24 27 27 23 18 15 14 12 11 11 11 12 11 10 9 7 6 5 4 4 4 4 4 4 5 6 7 7 7 6 4 4 3 3 3 2 3 2 3 2 2 15 23 22 19 20 32 38 41 47 51 71 82 74 72 71 73 85 92 91 83 72 63 59 57 49 39
2 2 2 2 2 2 2 2 2 4 4 5 5 4 4 5 8 12 16 20 24 28 31 30 28 24 19 17 15 13 12 12 12 13 13 12 9 7 7 6 4 4 4 4 4 4 5 7 8 8 8 6 5 4 3 3 3 3 2 3 2 2 14 24 23 20 18 25 32 35 42 52 67 72 67 65 65 72 82 88 93 87 73 65 61 58 53 44
2 2 2 2 2 2 2 2 2 2 4 5 6 6 6 5 7 12 18 22 26 32 34 33 32 29 25 20 17 15 14 13 12 13 14 14 12 9 8 8 7 5 4 4 4 4 4 5 7 8 9 8 7 6 4 4 3 4 3 3 4 2 11 24 24 19 19 25 32 33 39 49 57 61 59 56 57 66 80 88 91 87 77 70 62 56 55 53
2 2 2 2 2 2 2 2 1 2 3 6 8 8 8 7 7 14 22 26 29 34 36 35 33 32 29 24 20 18 16 14 13 12 13 14 14 12 10 10 9 7 5 4 4 4 4 5 5 6 8 9 9 7 5 5 4 4 4 3 4 4 10 22 25 21 22 26 30 34 43 50 52 55 55 54 54 59 77 89 86 84 83 77 68 59 58 60
2 2 2 2 2 2 2 2 2 2 2 5 10 11 11 10 9 17 27 29 29 34 37 37 35 34 32 29 25 22 20 17 15 13 12 13 14 14 13 11 10 9 7 6 5 4 4 4 5 5 7 9 10 10 8 7 6 4 4 3 3 5 8 17 23 23 21 22 30 43 55 58 54 52 51 55 60 61 76 92 87 82 82 82 78 66 61 62
2 2 2 2 2 2 2 2 2 2 3 7 13 14 14 14 13 20 29 30 28 30 36 39 38 36 33 32 30 27 24 21 18 15 13 13 14 14 13 12 12 11 9 8 7 6 5 4 4 5 7 10 12 12 11 9 7 5 4 3 2 4 5 10 20 25 19 22 35 46 54 58 56 55 53 55 64 66 74 90 92 85 82 84 84 74 65 63
2 2 2 2 2 2 2 2 2 2 6 13 19 18 16 17 17 21 29 32 28 26 29 35 38 38 35 33 32 30 27 25 22 18 15 14 13 13 13 13 12 12 11 10 9 8 6 5 5 5 6 9 12 14 14 10 8 6 4 4 2 2 5 9 18 23 21 29 42 44 47 51 51 53 56 57 63 69 76 87 92 89 83 83 84 80 71 66
2 2 2 2 2 2 2 2 2 3 10 21 26 23 20 19 20 20 25 30 29 24 23 26 32 36 37 35 33 31 29 27 25 22 19 17 15 14 13 13 13 13 13 12 11 9 7 6 6 6 6 6 9 13 15 12 9 8 5 5 3 2 6 12 19 24 23 31 41 42 45 48 46 51 60 62 66 72 77 84 89 89 87 84 83 82 75 71
3 2 3 2 2 2 2 3 3 4 15 27 27 23 21 20 20 20 21 26 27 23 21 21 23 28 32 35 34 32 30 28 27 24 22 20 18 16 14 13 13 13 13 13 12 10 9 9 9 8 6 5 7 11 15 14 11 9 7 5 4 3 5 14 25 28 21 23 32 37 42 42 37 42 54 62 68 73 75 79 83 84 86 84 80 78 75 75
3 3 3 3 3 3 3 4 3 6 17 25 23 22 22 20 20 20 19 22 24 23 23 21 20 21 24 29 32 33 32 30 27 26 24 22 20 19 16 14 13 12 12 13 12 12 11 11 11 9 8 6 5 8 14 17 14 12 9 6 5 4 5 15 30 31 20 16 23 29 34 34 27 30 47 60 65 70 73 74 75 77 81 80 77 77 78 79
3 3 3 4 4 3 3 3 3 8 16 19 19 20 20 18 18 19 18 18 20 21 22 22 20 19 18 20 25 30 32 32 29 27 25 24 22 20 19 16 14 13 12 12 12 13 13 13 12 10 9 7 6 6 10 16 17 15 12 8 7 8 11 22 34 35 26 17 19 26 30 31 26 28 42 54 62 73 74 70 69 69 71 74 76 78 78 76
3 3 3 5 5 4 4 4 4 8 13 14 14 15 14 15 15 17 17 16 16 16 18 19 19 19 18 17 18 22 27 29 29 29 27 25 23 22 20 19 17 15 13 13 12 12 13 13 12 11 11 9 7 6 6 12 15 15 13 10 12 17 22 30 37 40 37 24 18 24 29 32 31 32 39 45 59 75 73 66 65 61 63 71 74 75 73 69
3 3 4 5 5 5 5 5 5 9 12 11 11 10 9 11 11 14 16 14 14 14 13 16 18 19 19 17 15 17 18 21 24 27 27 26 25 23 21 20 19 17 15 13 12 11 12 13 13 12 11 10 9 7 6 8 10 14 16 12 15 25 30 32 36 42 45 36 22 17 22 32 34 36 43 48 57 66 62 61 62 57 57 63 66 68 68 62
4 4 5 6 5 6 7 7 8 9 10 9 9 8 8 9 9 12 13 12 19 23 15 14 20 22 21 18 16 15 14 16 19 22 24 26 25 24 22 21 20 19 17 14 13 12 11 12 12 13 12 11 10 9 8 7 7 15 21 15 15 27 34 32 33 41 47 47 39 22 13 23 31 33 39 45 50 53 53 59 63 60 59 63 62 63 64 57
5 5 5 5 6 6 6 9 11 9 9 8 9 8 7 8 7 10 11 14 30 39 28 21 25 27 25 22 19 17 14 14 16 17 19 21 23 24 23 21 20 19 18 16 14 13 12 11 11 12 12 12 11 11 10 7 7 16 23 18 14 24 37 34 33 46 50 48 50 38 17 16 28 33 28 24 31 40 49 62 68 66 62 64 64 63 61 55
8 11 9 5 5 6 5 7 10 10 8 8 9 9 8 9 8 8 11 21 39 51 45 35 32 32 33 31 26 21 16 15 15 15 15 16 19 21 23 22 21 20 19 17 16 14 13 12 12 11 12 12 12 11 11 8 9 15 22 22 15 20 37 40 37 49 54 48 50 49 33 21 29 39 29 20 30 40 48 63 72 69 63 63 68 70 69 62
17 23 20 12 6 5 5 6 8 9 9 9 9 8 9 11 9 7 14 32 52 63 60 49 40 37 38 36 32 27 22 20 18 15 14 14 15 17 20 21 21 21 20 18 17 15 14 13 13 12 11 12 12 11 11 10 10 12 18 22 19 18 31 42 42 46 50 50 51 53 46 31 29 41 36 29 39 44 46 62 74 70 65 67 72 76 77 72
27 30 28 24 16 8 5 5 7 9 8 9 9 8 11 14 10 9 21 45 65 72 71 62 50 45 42 39 36 31 28 25 22 18 15 14 13 13 15 16 19 20 20 19 18 17 15 14 14 13 11 11 12 12 11 11 11 11 13 19 22 20 24 35 43 44 46 51 53 54 55 45 32 32 32 28 35 38 40 54 66 67 64 66 68 70 76 77
30 27 26 29 28 23 16 9 7 9 9 10 9 8 12 16 12 11 22 46 65 72 75 70 59 54 50 44 40 36 31 27 24 22 19 17 16 14 13 13 14 16 18 19 18 17 16 15 16 15 13 12 11 11 12 12 12 11 11 14 19 20 21 26 34 38 43 51 55 53 59 64 51 38 34 34 37 40 41 46 53 57 58 62 64 63 69 76
28 24 23 24 29 32 30 22 13 8 8 9 9 12 19 20 17 15 22 43 64 72 75 73 64 60 56 48 43 39 34 29 25 22 21 19 18 17 15 13 12 12 14 16 17 18 16 17 20 17 14 14 12 11 12 12 11 12 12 11 14 18 20 21 25 30 36 47 57 54 56 69 68 50 33 28 33 35 38 49 55 55 54 58 61 57 59 66
24 22 22 21 24 29 33 34 26 17 13 11 12 20 29 27 22 20 21 40 66 73 70 66 60 59 58 54 48 40 34 31 26 21 19 18 17 17 15 14 13 11 11 12 14 16 14 19 25 20 14 15 14 12 11 12 12 13 12 12 13 15 18 22 25 29 31 39 52 56 55 62 69 57 30 18 28 29 30 48 59 58 56 51 44 43 48 57
24 23 22 22 22 23 29 35 36 32 28 28 29 32 35 30 26 27 26 36 59 68 66 66 66 63 60 57 52 43 34 29 26 22 19 17 15 15 14 14 13 12 11 10 11 14 14 20 26 23 18 16 16 16 13 14 17 15 13 14 13 13 15 21 26 31 32 35 45 53 55 57 61 58 37 20 25 26 29 48 55 51 49 38 23 18 27 45
26 26 25 26 25 24 26 29 36 42 42 45 46 43 41 37 33 34 36 39 46 53 59 70 75 69 61 56 52 44 33 26 24 21 19 17 15 14 12 12 12 11 11 10 10 11 13 21 28 30 29 21 18 22 20 18 20 19 16 14 13 13 13 15 20 27 31 34 41 47 50 54 56 55 45 30 25 24 25 37 42 38 33 24 13 5 16 46
28 29 28 28 29 31 31 29 33 40 46 58 65 58 51 51 49 44 43 43 42 45 54 65 69 62 55 51 48 40 32 27 23 19 18 18 16 15 13 11 11 11 10 10 11 10 12 23 34 40 41 34 25 28 34 33 28 24 22 19 17 16 16 15 15 18 21 25 32 36 38 46 53 54 50 41 34 25 18 16 18 19 16 10 5 5 26 64
31 34 33 30 31 34 36 37 41 42 44 55 69 69 61 58 58 54 50 51 54 58 60 61 63 60 52 46 41 33 28 26 24 19 17 16 16 16 14 12 11 10 10 10 11 12 12 22 41 51 53 51 45 41 49 53 43 35 35 35 29 23 21 20 17 16 15 16 22 25 27 35 46 53 53 49 42 29 15 9 8 8 7 6 5 6 22 50
36 40 40 37 35 33 30 33 42 49 50 52 60 69 74 71 63 57 56 58 68 77 73 63 63 63 55 46 40 34 28 24 21 19 16 14 14 15 15 13 12 10 11 10 11 15 14 18 45 65 65 68 70 63 61 64 59 51 47 48 44 36 30 24 21 22 19 18 22 22 22 27 37 48 52 50 46 34 17 8 7 8 7 7 8 9 11 17
43 44 45 45 43 38 31 27 28 34 40 46 52 59 69 70 63 63 65 63 71 85 83 69 61 60 55 47 42 39 36 31 27 23 19 17 15 15 14 13 12 10 10 10 10 17 19 18 42 68 73 82 92 84 71 68 71 68 58 53 53 47 40 32 28 28 25 23 25 22 20 21 24 36 46 45 40 29 17 12 13 13 11 9 9 12 13 9
46 46 46 49 51 47 41 34 29 26 24 28 34 36 38 39 40 50 60 60 62 72 77 72 64 60 55 45 36 34 38 39 36 29 24 23 22 23 22 19 17 16 14 14 13 17 23 24 40 63 71 83 98 97 86 77 78 81 71 62 60 54 46 40 33 30 28 27 27 24 21 19 15 19 26 29 26 22 22 25 26 23 19 15 13 13 16 14
32 40 44 50 54 53 51 46 41 34 26 22 22 21 22 23 25 31 37 41 42 46 58 65 62 54 47 38 29 28 33 38 39 33 26 24 24 27 29 27 28 28 25 23 21 20 22 25 46 71 72 71 85 98 97 88 82 85 80 72 70 66 56 46 38 33 29 30 29 28 27 22 15 15 17 19 21 27 37 38 34 33 28 23 20 18 16 14
21 27 35 43 46 45 48 54 54 46 34 27 23 18 18 19 21 23 23 26 27 27 36 47 47 40 34 30 25 24 29 33 34 30 22 20 20 21 23 24 27 30 29 27 23 21 20 20 43 81 88 71 72 85 95 95 90 89 88 79 77 78 71 58 49 42 36 33 28 28 31 26 18 19 24 29 31 35 44 41 37 41 38 29 26 24 20 16
31 29 27 31 34 31 31 43 60 60 43 33 28 22 19 18 17 18 17 19 21 21 24 29 31 29 24 21 18 17 21 23 24 21 16 14 14 14 15 16 18 21 21 22 19 17 18 13 24 65 95 87 72 72 79 85 86 90 92 84 77 81 81 72 62 55 49 43 32 29 33 28 21 22 26 35 42 42 43 41 42 49 46 35 30 27 26 24
38 41 33 29 28 24 21 33 58 68 54 40 34 27 24 21 18 17 16 15 17 18 19 19 19 20 17 15 14 12 13 13 13 14 12 10 10 9 10 10 11 12 12 13 15 13 16 15 11 35 77 97 87 74 70 70 69 74 85 88 79 77 79 79 74 66 61 55 43 37 39 30 24 24 23 38 55 50 44 45 49 58 57 43 33 30 33 36
28 39 38 34 32 29 30 36 50 61 59 52 46 39 34 30 25 22 20 19 18 17 17 16 16 16 15 14 13 12 11 10 10 10 9 9 9 8 8 8 7 8 8 8 10 10 11 16 12 14 46 86 99 89 78 73 67 63 73 89 90 77 72 80 85 75 66 62 52 44 44 36 27 21 18 36 61 61 53 48 47 57 62 51 39 34 35 42
17 28 33 39 42 41 43 45 45 50 54 54 52 49 46 41 36 33 29 26 24 21 20 19 17 16 15 14 14 13 12 12 11 11 10 9 9 8 8 8 7 7 7 5 6 8 7 10 14 10 20 58 93 98 85 77 75 70 69 82 93 86 75 80 89 82 70 66 58 51 49 39 30 25 18 26 49 61 59 51 42 49 62 61 51 44 40 43
8 13 18 27 31 28 29 31 29 31 35 35 35 37 37 35 35 35 34 30 28 27 25 22 20 19 17 16 15 14 13 13 12 12 11 10 10 9 8 8 8 7 7 7 5 6 6 5 9 10 9 25 62 91 94 83 76 76 74 76 84 89 84 78 81 84 79 73 67 66 63 49 35 32 25 19 30 45 52 54 54 57 66 72 65 55 50 47
7 7 8 11 12 10 10 12 11 12 14 13 13 14 15 15 16 18 20 21 21 23 22 20 18 17 16 15 15 15 14 14 13 12 12 11 10 10 9 8 9 7 7 7 6 5 7 5 4 8 8 7 22 55 87 96 87 80 78 76 76 81 84 79 75 81 86 82 79 81 79 63 45 38 32 22 24 36 42 48 62 68 69 75 75 63 57 55
8 8 8 7 7 7 8 8 7 8 8 8 8 8 7 8 8 9 10 10 11 13 14 14 13 13 13 13 13 13 12 12 13 12 11 11 10 10 10 8 9 9 7 7 7 5 6 7 5 5 7 7 6 16 45 78 95 94 87 81 75 75 78 78 75 77 82 84 85 87 87 78 59 44 37 29 27 39 43 41 55 70 68 70 77 71 61 58
10 10 10 9 9 9 8 9 9 9 10 9 9 10 9 9 9 9 10 11 9 8 9 10 11 12 13 12 11 11 11 10 12 11 10 10 10 9 9 9 8 9 8 7 8 8 6 6 7 6 5 6 7 5 10 33 63 86 96 94 85 81 85 87 81 73 72 79 87 89 87 84 73 56 43 36 32 42 49 43 48 68 74 68 71 76 69 60
Wind_Speed
17 17 17 17 17 17 17 18 19 20 22 23 24 25 25 25 25 25 24 24 23 23 22 22 21 21 21 20 19 19 19 19 19 18 18 19 21 22 22 24 24 21 20 20 20 19 18 17 15 15 15 16 15 14 13 13 14 13 11 10 8 7 7 7 5 5 5 3 4 4 1 7 12 16 16 14 13 11 13 11 10 8 6 8 7 7 9 12
18 19 19 19 19 19 19 19 19 20 20 21 23 24 25 25 26 26 26 26 25 25 25 24 24 23 23 22 21 20 20 20 19 18 18 18 19 21 21 23 24 23 22 22 21 21 20 18 17 17 17 17 17 15 15 14 14 13 12 11 9 7 7 7 6 5 5 3 4 7 5 2 8 15 17 15 13 12 12 11 10 9 8 9 7 5 8 11
20 20 21 21 22 22 22 21 21 21 21 22 22 23 24 25 26 26 27 27 26 26 26 26 26 26 25 25 24 23 22 21 20 19 18 18 19 20 20 22 23 23 23 23 22 21 20 19 18 18 18 17 16 15 16 16 16 15 14 13 10 7 6 7 7 6 5 2 3 7 7 5 6 13 16 14 14 14 12 12 12 11 10 10 8 6 8 10
20 20 21 22 23 24 24 24 24 24 24 23 23 23 24 24 25 26 27 27 27 27 27 27 27 27 27 27 26 25 25 24 23 21 19 19 19 19 20 21 22 22 23 23 22 21 20 20 20 19 19 17 15 14 15 18 19 17 17 15 11 8 7 8 8 7 7 3 2 5 6 7 6 10 13 13 15 15 12 12 11 11 12 12 10 7 8 10
21 21 22 22 23 24 25 26 26 27 26 26 26 26 25 25 25 25 26 27 28 28 27 27 28 29 29 28 28 28 27 26 25 23 22 21 20 20 20 20 20 21 23 23 22 22 22 22 22 20 19 18 15 14 15 17 19 19 19 17 13 11 10 11 10 9 9 7 2 3 5 6 3 10 13 13 15 15 13 12 10 9 10 12 12 9 8 10
24 24 24 24 25 25 26 26 27 28 29 29 29 28 28 27 27 26 27 27 27 28 28 28 28 29 29 30 30 29 29 29 27 25 24 23 23 21 20 19 19 20 22 22 22 23 23 22 21 21 21 19 16 17 18 17 17 18 19 17 15 14 13 13 12 10 11 11 7 2 5 8 6 9 11 10 13 13 13 13 11 9 9 8 9 10 10 10
27 27 27 27 27 27 28 28 28 29 30 30 31 31 31 30 29 28 28 28 28 28 28 28 28 28 29 30 30 30 30 30 28 27 27 26 25 24 22 20 19 20 21 21 22 23 23 22 22 22 21 20 20 20 19 17 16 17 17 17 17 18 17 16 13 11 12 12 10 6 4 8 8 8 6 6 11 12 13 13 11 10 9 9 8 9 11 10
28 28 28 29 29 29 30 30 30 30 31 31 32 32 33 33 32 31 30 30 30 29 28 28 29 29 29 30 30 30 31 31 30 29 29 28 27 26 24 22 20 20 21 20 21 22 21 22 22 22 21 22 24 23 21 19 18 18 18 18 19 19 19 19 17 14 12 11 9 7 5 6 6 5 2 6 13 13 13 13 12 11 10 10 9 9 10 10
29 29 29 30 30 30 31 31 31 32 32 33 33 33 34 34 34 34 33 32 32 31 30 29 29 29 29 30 30 30 31 31 31 31 31 30 29 28 26 24 23 22 21 19 19 20 21 22 23 23 23 25 26 25 23 21 21 22 21 19 19 18 18 19 20 18 15 13 10 8 7 6 4 3 1 5 10 12 13 12 12 12 11 11 10 9 10 10
30 30 30 30 31 31 31 32 32 33 33 34 34 35 35 35 36 36 36 35 34 33 32 31 30 30 29 30 30 29 30 31 32 32 31 31 30 29 28 26 25 24 22 19 18 21 24 25 24 24 25 26 26 24 23 24 24 23 20 17 17 16 16 17 19 19 16 15 12 9 9 7 5 4 3 3 5 9 12 13 13 12 12 12 10 9 9 9
31 31 31 31 32 32 32 32 32 33 34 35 35 36 36 36 37 38 38 38 37 36 35 34 33 32 31 30 30 29 29 30 31 32 32 31 30 30 29 28 26 25 23 20 21 23 25 25 24 23 24 24 24 23 23 26 26 22 18 17 16 13 13 14 15 17 16 16 15 11 10 8 6 6 5 4 4 7 10 13 13 12 12 12 10 10 9 8
33 33 32 32 33 34 34 33 32 33 34 35 36 36 37 37 38 39 39 40 39 38 37 36 35 34 33 32 31 29 29 29 30 33 32 30 30 30 29 29 28 26 23 23 24 24 24 23 23 24 24 24 23 21 23 25 23 20 17 16 15 12 10 10 12 14 15 16 16 14 12 9 8 8 7 5 2 6 11 13 13 11 10 11 10 10 10 9
35 35 34 34 35 36 35 33 32 33 34 35 36 37 37 38 38 40 40 41 41 40 39 38 37 36 35 35 33 30 29 29 30 32 32 30 30 30 29 29 29 27 25 26 27 26 24 23 23 25 24 23 21 20 22 22 20 19 17 15 15 13 11 10 11 12 13 16 16 15 14 11 8 8 8 6 3 4 8 10 13 12 10 11 10 10 10 9
37 36 36 36 37 37 36 34 33 33 34 35 36 37 38 38 39 40 40 40 41 41 41 40 39 38 37 36 35 33 31 30 30 32 32 29 29 29 29 29 30 29 28 29 29 26 24 23 23 22 21 21 21 21 21 20 19 19 16 16 16 13 12 12 11 11 13 16 16 16 14 12 10 7 6 7 5 4 5 7 12 13 11 12 11 10 10 8
38 38 38 37 37 37 36 34 34 34 34 34 36 37 37 38 39 40 40 41 41 41 41 41 40 40 39 38 36 35 33 32 31 32 32 29 28 28 28 29 30 30 30 31 30 27 24 23 22 20 20 22 21 19 19 18 18 17 16 17 16 14 14 13 12 12 15 17 17 17 14 12 10 8 7 7 6 5 4 7 13 13 11 12 11 10 9 8
40 40 39 38 38 37 36 34 34 35 34 35 36 37 37 38 39 40 40 41 40 40 40 41 41 40 40 39 38 36 35 34 33 33 32 30 29 29 28 28 29 30 31 31 31 29 26 24 23 22 22 21 20 19 19 19 18 16 16 17 17 15 15 14 14 14 15 16 16 15 14 12 11 9 8 7 6 5 3 7 13 14 12 11 11 10 9 8
41 41 41 40 38 37 36 34 34 35 35 36 37 37 37 38 39 39 39 39 39 38 38 40 40 39 40 40 39 38 37 36 35 33 32 31 29 30 29 27 28 29 31 31 31 31 28 26 25 24 23 21 20 20 19 18 17 16 17 18 18 17 17 17 16 15 15 15 16 15 13 13 13 12 10 8 7 4 2 7 13 14 13 11 10 10 10 9
42 42 42 40 38 37 35 34 35 36 36 37 38 38 37 37 37 37 36 36 36 36 37 38 39 39 39 40 40 38 37 36 36 35 33 32 30 30 30 29 28 29 30 31 31 30 28 27 26 25 24 21 20 20 18 17 17 18 19 21 21 20 20 20 18 17 17 17 17 15 13 13 14 13 10 7 7 5 3 9 13 13 13 12 10 10 11 10
43 41 40 38 36 34 34 33 35 36 37 38 39 38 37 36 35 35 34 33 33 34 35 36 36 37 38 38 38 38 37 36 36 36 34 33 31 31 31 31 29 29 30 29 29 29 28 28 28 26 23 20 19 19 18 19 21 23 24 26 26 25 24 23 22 21 19 18 17 17 16 15 15 13 11 9 7 6 6 8 11 12 12 10 9 9 9 9
42 38 36 35 33 32 32 32 34 36 37 38 38 38 36 34 33 33 33 33 32 32 33 34 34 35 36 37 37 37 37 37 36 36 35 34 33 31 32 32 31 30 29 28 28 28 28 29 28 24 22 21 21 21 22 24 25 25 26 27 27 28 27 26 25 23 21 18 18 20 20 18 16 14 13 11 9 8 7 8 10 12 12 10 9 8 8 9
40 36 33 32 31 30 30 31 32 34 34 34 34 34 33 32 31 32 32 31 30 30 31 32 33 34 35 35 36 37 37 37 37 37 36 35 34 33 32 32 33 32 30 29 29 28 29 28 24 23 25 26 25 24 25 27 27 26 25 24 24 26 27 26 26 25 22 20 20 21 20 19 18 16 14 13 12 11 9 8 10 11 11 11 10 9 9 8
38 34 31 30 29 28 29 29 29 30 29 29 28 28 29 29 29 30 30 30 29 29 30 31 32 34 34 34 34 36 36 36 36 36 37 36 35 34 33 32 33 32 32 31 30 30 28 24 22 24 28 29 28 26 26 27 27 27 25 23 21 24 28 27 26 25 24 23 23 22 22 21 21 20 17 15 14 12 10 10 10 10 10 11 12 12 10 8
36 34 30 29 29 27 27 28 26 25 24 23 23 24 26 27 28 28 28 29 28 28 28 29 31 32 33 33 33 34 35 36 36 35 36 37 36 35 34 33 33 33 33 33 31 30 25 21 22 26 27 28 29 28 27 28 27 26 24 22 21 25 29 28 25 25 25 26 25 25 26 26 25 24 21 19 17 14 11 11 12 12 11 12 13 13 11 8
35 32 29 28 28 27 26 26 23 21 19 20 21 22 24 25 26 26 26 28 28 28 28 28 28 30 31 33 33 33 33 33 35 35 35 36 36 36 35 34 34 34 33 32 32 30 25 23 25 27 26 28 30 30 30 29 27 25 22 21 22 25 27 27 27 27 26 26 26 27 29 28 26 25 23 19 17 14 12 11 12 13 13 12 11 11 10 8
33 30 27 26 27 25 24 23 20 17 16 18 19 18 19 20 22 24 25 25 26 26 27 27 27 28 29 31 32 33 32 32 33 34 34 35 35 35 35 35 34 33 33 32 32 30 28 28 29 27 27 28 29 31 31 29 28 25 21 21 23 25 27 29 30 30 28 27 27 28 29 27 25 25 25 22 18 14 12 12 13 15 15 14 11 10 11 11
31 28 24 24 25 24 21 19 17 15 15 16 15 14 14 16 19 22 22 22 22 24 25 26 27 27 28 28 30 31 32 32 32 32 33 34 35 35 35 34 34 34 33 33 33 31 30 31 30 28 28 28 27 29 31 31 30 26 21 23 27 29 31 32 31 31 29 28 30 29 27 25 25 25 25 24 21 16 14 14 13 14 15 15 14 13 13 11
29 25 21 22 23 22 18 15 14 13 14 13 12 11 12 14 17 19 20 20 20 21 22 23 25 25 26 27 27 28 30 30 31 33 34 34 34 35 35 34 34 35 35 34 33 32 32 33 31 30 29 28 27 27 29 31 31 26 23 26 31 34 35 34 33 33 29 28 30 30 28 26 25 24 24 23 22 20 17 14 12 13 15 16 16 16 15 12
26 22 20 20 20 18 15 12 11 12 12 11 11 11 11 13 15 17 19 19 17 18 20 21 22 23 25 27 26 27 28 28 30 33 35 35 35 35 35 35 35 36 36 34 33 32 33 33 32 31 31 29 28 27 28 31 31 27 26 29 33 37 38 37 36 34 32 29 28 29 29 27 25 25 27 26 24 22 17 12 11 12 13 14 15 16 16 14
23 21 19 17 16 14 13 10 8 9 10 11 11 11 11 12 15 16 18 18 16 17 19 20 20 21 24 26 26 26 27 28 30 32 35 36 35 36 36 36 36 36 35 35 33 32 33 33 32 32 32 31 30 29 30 30 30 30 31 32 34 38 40 39 38 36 35 33 29 28 28 25 24 27 28 26 23 19 15 11 11 13 14 15 15 14 15 15
21 19 17 15 13 12 11 9 7 8 10 12 11 10 9 11 15 16 17 19 19 18 19 20 20 21 22 23 25 25 26 28 30 31 34 35 35 36 37 36 36 36 35 35 34 33 33 32 32 32 33 33 32 31 30 29 30 33 35 35 35 40 43 42 40 38 37 34 30 27 27 26 26 27 24 18 14 14 13 10 11 13 14 14 12 12 13 14
19 18 17 14 12 11 10 8 6 7 10 12 11 10 9 11 15 17 17 20 21 20 21 21 21 21 21 22 23 24 24 26 28 30 32 33 34 36 37 37 37 37 36 35 35 34 33 32 32 33 34 33 33 33 32 30 30 33 37 38 38 40 44 44 42 40 38 35 30 26 27 28 28 26 22 15 11 12 13 12 13 13 13 13 13 12 13 15
17 17 17 15 12 10 8 7 5 6 9 11 12 11 10 11 16 18 19 22 22 22 23 23 22 21 20 21 22 22 22 24 26 28 29 31 32 33 35 36 37 37 37 36 36 35 34 33 33 34 34 34 34 34 34 33 32 33 36 39 40 41 43 45 44 42 39 36 32 27 26 28 27 25 22 17 14 13 11 12 15 16 15 16 16 15 14 15
16 17 17 15 12 9 7 6 5 5 7 10 11 11 10 12 16 19 21 23 22 23 23 23 23 22 20 20 21 21 21 23 25 26 27 28 29 29 31 33 35 37 37 37 36 36 36 34 33 33 34 34 34 35 36 36 35 34 35 38 41 41 43 45 45 44 41 39 36 32 28 28 25 24 23 21 20 18 14 13 15 17 18 18 18 18 17 17
17 17 16 14 11 8 6 5 4 4 6 8 9 9 9 11 15 18 20 21 20 20 21 21 21 21 20 19 19 19 20 21 23 24 25 26 26 26 27 29 32 34 35 36 36 37 37 34 33 34 35 35 35 35 36 37 37 36 35 36 40 41 42 43 44 44 42 41 40 37 32 29 26 25 25 25 25 23 19 17 18 20 19 18 18 17 16 17
17 17 17 15 11 8 6 4 3 3 4 5 6 6 6 9 13 16 18 18 18 17 17 17 18 20 21 20 20 20 21 21 22 23 23 24 25 25 26 27 29 32 34 35 35 36 37 36 35 36 37 36 35 35 36 37 37 38 37 37 40 42 43 44 45 45 44 43 44 41 37 33 30 28 26 26 27 25 22 23 24 23 21 19 17 14 13 14
17 17 17 17 13 9 6 4 2 1 1 1 2 3 5 8 11 13 15 16 16 16 16 17 18 21 23 23 23 23 22 22 23 24 25 25 25 25 26 27 29 30 33 34 34 35 36 36 36 37 38 38 37 36 36 36 37 39 39 39 41 42 43 45 47 47 46 45 45 44 42 38 35 32 29 28 30 28 25 27 29 28 26 23 20 16 14 14
16 17 18 18 16 13 9 6 3 1 2 2 1 3 4 6 9 11 12 13 13 14 16 17 18 20 21 23 23 24 25 24 24 25 26 26 27 27 26 27 28 30 31 32 33 35 36 36 37 37 38 38 38 36 36 36 37 38 40 41 41 41 42 44 46 48 48 47 46 45 45 43 40 39 36 32 32 30 29 30 32 32 31 28 24 19 16 14
14 16 18 18 18 16 13 9 5 3 4 4 4 4 4 6 8 9 9 10 11 13 14 15 16 17 18 19 20 21 23 23 23 24 24 25 26 27 27 27 28 29 30 31 31 33 35 36 37 37 38 38 37 36 35 36 37 38 38 39 39 40 41 43 44 46 47 47 47 47 47 47 45 44 42 38 35 34 32 33 34 33 31 29 24 20 18 16
14 16 17 17 17 16 15 13 9 6 5 6 6 6 5 7 9 9 9 11 11 12 13 13 13 14 15 16 16 17 19 19 20 21 22 22 23 24 24 25 26 27 29 30 30 31 33 35 37 38 38 38 36 35 35 36 38 38 37 37 37 40 42 42 43 44 44 46 47 47 48 49 49 49 47 43 40 37 34 34 34 32 30 28 23 22 21 19
13 14 16 16 16 15 14 14 13 10 7 5 4 4 5 7 9 10 11 12 13 13 12 12 12 12 13 13 12 14 15 16 16 18 19 20 20 20 21 21 22 23 25 27 27 29 31 34 37 38 39 38 36 35 36 38 38 38 38 38 37 39 41 41 41 42 42 43 44 45 47 51 52 52 51 48 44 41 37 34 33 32 30 29 26 24 23 21
12 13 13 14 15 15 13 13 13 12 10 6 3 2 5 7 8 10 11 13 14 14 13 12 11 11 12 12 12 12 12 13 14 14 16 17 18 19 20 20 19 20 21 23 24 26 29 33 35 38 40 40 37 36 37 39 39 40 39 39 38 38 40 41 41 42 42 41 41 42 43 47 51 53 53 51 47 43 38 34 32 30 30 31 29 27 25 24
10 11 12 12 13 13 12 12 12 11 10 7 4 0 3 4 5 8 10 12 13 14 14 13 13 13 13 13 12 10 10 12 13 13 14 16 17 18 18 18 18 18 20 21 22 24 27 31 34 36 39 42 40 38 38 39 40 41 41 39 38 39 40 41 42 43 43 42 41 41 40 41 45 48 49 48 45 40 36 33 32 31 31 32 31 30 30 28
9 9 10 11 12 12 12 12 12 11 9 7 5 2 1 1 1 4 7 8 9 10 12 14 14 14 13 11 9 8 10 12 13 13 13 14 15 16 16 16 16 17 19 22 23 23 26 30 33 35 37 41 42 41 41 40 40 42 41 40 39 39 39 40 43 43 42 42 42 42 40 39 41 42 40 39 39 38 37 37 36 34 33 33 33 33 33 32
11 10 9 9 9 10 10 10 9 8 8 7 5 4 3 2 0 2 3 5 6 7 10 13 13 13 12 10 8 9 11 12 13 13 13 13 13 13 14 15 16 16 18 21 24 25 26 29 32 35 36 39 42 43 43 43 42 41 41 41 40 39 39 40 42 43 42 42 43 43 42 41 41 41 37 35 37 40 41 41 40 37 36 36 35 35 35 35
13 11 9 8 8 8 8 8 6 5 5 5 4 3 4 3 2 0 2 4 5 6 8 10 11 12 11 10 10 10 12 12 13 13 13 13 13 13 12 13 15 16 17 20 24 26 27 29 32 36 38 39 41 42 44 45 45 43 42 42 42 41 40 40 42 43 42 42 44 45 45 44 43 42 39 37 39 43 43 43 41 39 38 38 38 38 38 38
14 11 8 7 7 7 6 7 7 5 3 3 4 3 4 4 3 2 2 3 4 6 7 8 9 10 10 10 10 10 11 12 13 13 13 13 13 13 13 14 15 16 17 20 22 24 27 29 31 36 39 40 41 42 42 43 45 45 45 44 44 44 43 42 43 44 43 43 44 46 47 46 45 44 41 39 41 44 45 44 42 39 39 39 40 41 41 40
15 12 9 7 7 7 7 8 8 7 4 2 3 3 3 4 5 5 5 6 6 7 8 9 10 10 10 11 11 12 12 13 13 14 14 15 15 16 15 15 16 16 17 19 20 21 24 27 30 34 39 42 42 42 43 42 42 45 46 46 45 45 46 46 45 45 45 45 45 46 48 48 47 46 44 42 41 41 42 45 43 41 40 40 41 42 43 42
15 13 11 9 9 9 9 10 10 9 7 5 5 5 6 6 7 7 7 8 8 10 11 11 11 12 12 12 13 14 15 15 15 16 16 17 18 18 18 17 17 18 19 19 20 21 23 24 27 31 36 42 44 43 43 43 43 43 46 48 47 46 47 49 48 47 46 46 46 47 49 50 49 48 48 47 45 40 39 42 44 45 44 43 43 44 45 44
18 15 13 11 10 10 11 12 12 11 11 10 10 9 10 10 10 11 11 11 12 12 12 12 12 13 13 14 14 15 16 17 17 18 19 20 21 21 21 20 20 21 22 22 22 23 24 25 26 28 32 39 44 46 45 44 45 44 46 49 50 49 49 49 49 48 47 47 47 48 50 52 52 51 51 51 50 47 43 40 43 48 48 45 45 46 45 46
21 18 15 13 13 14 13 13 13 12 12 12 12 12 12 12 12 13 13 14 15 14 14 13 13 13 14 14 15 16 17 18 19 20 21 22 23 24 24 23 23 23 24 25 25 26 27 28 28 29 30 33 39 45 47 47 46 46 48 50 52 52 51 49 50 51 50 49 49 50 51 52 52 53 54 53 52 51 48 42 42 48 51 48 47 47 46 46
21 20 17 16 17 17 15 14 13 12 12 12 13 13 13 13 12 12 12 12 14 15 15 14 14 13 13 14 15 17 18 19 20 22 23 24 24 26 27 26 25 26 26 27 27 28 29 31 31 31 31 32 35 40 46 49 49 49 50 51 52 53 53 52 52 52 51 51 52 52 53 53 53 54 55 55 54 53 51 48 44 47 52 53 51 49 47 48
20 19 18 17 18 18 16 15 14 13 13 13 13 13 14 14 14 14 12 10 9 9 10 12 12 13 13 15 17 19 20 20 21 22 23 24 24 26 27 27 26 26 27 26 26 27 29 31 32 32 32 33 35 37 41 46 51 53 53 52 52 54 57 57 55 53 52 52 54 56 56 55 54 55 55 57 58 56 54 52 49 47 51 56 56 52 49 49
Wind_Direction
288 288 287 285 284 282 280 277 275 273 271 269 266 265 263 261 260 257 254 251 249 248 247 246 246 247 247 244 243 244 245 244 243 240 236 234 235 233 229 231 233 228 227 229 230 228 228 228 228 227 227 226 221 218 220 230 237 242 244 244 243 240 254 264 273 312 330 352 36 40 149 190 183 170 162 156 156 141 120 123 124 129 145 118 109 121 126 128
284 284 284 283 283 281 280 278 276 275 274 272 270 267 265 262 261 259 256 252 249 247 247 246 244 244 246 245 242 241 242 243 243 242 239 235 235 234 229 231 233 230 226 227 229 229 229 227 226 226 226 229 227 222 221 229 236 240 245 243 238 233 245 259 256 273 299 336 50 57 58 175 193 172 162 153 149 142 127 128 132 139 142 124 116 122 128 131
282 281 280 280 280 279 278 277 275 274 273 272 272 270 268 265 262 260 258 255 251 247 245 246 245 243 243 244 243 241 240 241 242 241 240 238 235 234 231 230 231 231 229 227 228 229 230 229 228 227 228 231 231 227 224 229 235 237 242 241 237 230 239 251 244 250 269 295 74 70 61 81 148 163 162 153 146 146 139 142 151 152 146 136 131 132 132 133
287 284 281 279 278 276 275 275 274 273 272 271 270 269 269 268 265 262 259 256 254 250 245 243 244 244 243 242 242 242 240 240 240 239 239 239 237 236 232 230 229 230 230 227 227 227 228 226 225 225 228 231 231 230 226 227 231 233 238 240 239 230 229 237 234 233 243 253 110 83 74 93 131 168 168 157 152 152 148 151 156 154 151 147 142 143 136 135
293 290 286 283 280 277 275 273 272 271 270 269 268 267 267 267 267 265 262 258 255 252 248 243 242 242 242 242 241 241 241 240 239 238 238 238 238 237 234 231 228 229 230 228 225 225 225 224 224 223 224 226 226 226 224 227 228 230 236 238 238 232 225 226 225 222 227 230 189 88 79 90 137 185 176 168 166 158 151 154 155 154 158 154 147 147 139 136
296 294 291 288 285 281 277 273 271 269 268 267 266 266 265 264 264 264 264 261 258 254 251 247 242 241 241 241 240 240 240 240 239 238 237 237 237 237 236 231 228 229 230 227 225 224 224 225 225 223 221 220 217 219 222 224 227 230 236 236 236 235 229 224 222 220 224 227 215 169 94 86 97 168 176 181 177 161 153 156 153 157 165 158 151 150 141 139
297 295 293 291 288 285 281 277 273 270 268 266 264 264 263 262 261 261 261 261 260 257 253 249 245 241 239 239 239 239 240 239 238 238 237 236 236 236 236 233 227 228 229 226 225 225 224 224 223 222 222 218 214 216 219 220 223 230 233 233 234 233 232 228 223 218 223 230 225 211 146 102 104 148 172 189 179 165 157 155 152 160 168 162 158 151 141 142
297 296 294 292 289 287 284 280 276 272 269 266 264 262 261 260 260 259 259 258 258 258 255 251 247 243 240 238 237 238 239 238 237 237 236 235 235 235 235 234 229 228 229 226 225 226 225 224 223 222 220 217 216 215 214 214 215 222 225 226 228 228 232 233 228 218 216 226 224 210 170 125 125 135 145 181 175 170 162 157 158 162 168 167 161 153 145 147
298 296 295 293 291 289 285 282 278 274 271 268 264 262 260 258 257 257 257 256 255 255 254 253 249 245 242 239 236 236 238 238 236 236 236 235 234 234 234 233 230 229 229 226 224 225 224 222 221 219 216 216 219 217 215 215 216 221 223 225 228 228 230 234 234 226 214 217 214 199 180 161 150 129 133 184 175 180 172 162 164 165 170 172 163 158 153 151
300 298 297 295 293 291 288 284 280 276 272 269 266 262 260 257 256 254 254 254 253 252 252 251 250 247 244 241 237 235 236 237 237 235 235 235 235 235 234 233 232 230 229 225 220 221 221 220 219 219 219 221 222 220 216 219 224 227 227 229 234 235 234 233 238 234 218 213 209 195 186 177 167 164 198 202 192 200 179 161 167 170 172 173 166 160 154 152
303 302 300 297 295 293 289 286 281 277 273 270 266 263 260 258 255 253 251 251 251 251 250 249 248 247 245 242 238 235 234 236 238 237 234 233 234 235 234 234 232 230 228 225 221 222 222 222 221 221 223 223 223 221 218 223 231 234 230 231 235 237 240 238 242 240 224 215 210 202 195 182 179 188 195 198 213 217 184 163 169 173 171 172 169 161 152 153
305 304 302 299 296 294 291 287 283 279 275 270 267 264 260 258 255 252 250 249 248 248 249 248 246 245 244 242 239 236 233 234 237 238 236 233 231 232 232 232 232 231 227 224 223 222 221 221 219 219 222 222 222 219 220 227 235 235 231 231 232 227 230 228 229 234 225 216 210 205 201 188 190 202 201 195 198 207 188 175 176 177 172 171 169 164 157 157
306 305 302 300 297 295 292 288 284 280 276 272 269 266 262 258 255 252 250 248 246 246 246 246 246 244 242 242 240 237 233 232 235 238 237 235 232 230 229 230 231 230 226 226 226 223 220 220 219 220 221 223 221 217 220 228 232 232 229 228 228 217 209 210 208 215 217 214 210 205 200 190 191 204 206 199 181 187 188 186 188 186 176 170 169 168 164 164
307 306 303 301 298 296 294 290 284 279 276 272 269 266 263 258 255 252 250 248 246 245 245 245 245 244 241 240 240 237 233 231 233 237 237 235 233 232 229 228 228 228 226 226 228 226 222 221 222 222 222 223 222 218 218 223 228 230 225 223 225 211 201 204 202 200 201 205 209 205 198 189 187 197 203 199 189 183 189 197 197 191 178 170 170 172 170 171
308 306 304 302 299 296 293 289 284 279 275 271 267 265 262 258 255 253 250 249 246 244 244 244 243 243 241 239 238 237 234 230 231 235 238 235 231 232 231 228 227 227 226 227 228 227 223 221 223 221 220 221 221 220 215 215 224 228 224 222 222 210 198 200 198 193 193 198 204 202 196 189 188 193 196 200 192 181 191 199 196 190 179 173 172 172 170 173
309 307 305 303 300 296 293 287 282 277 273 268 265 263 260 256 253 252 250 249 247 245 244 243 242 241 241 239 236 235 234 231 229 231 237 237 231 230 231 229 228 228 228 228 228 227 223 220 219 217 217 217 216 218 213 210 216 221 221 219 220 211 197 196 196 193 193 193 197 199 194 190 194 197 196 201 189 170 194 192 187 185 176 174 176 169 162 166
310 308 306 304 301 297 293 287 280 274 269 264 261 259 257 254 252 250 249 248 246 245 243 243 241 240 239 238 236 234 233 232 229 228 231 235 232 229 229 229 229 229 229 229 228 228 226 221 219 217 217 213 210 213 212 209 209 211 213 213 215 210 198 196 195 190 187 182 183 188 190 192 198 200 195 199 189 170 186 172 171 178 178 176 178 170 163 165
311 310 308 305 302 298 292 285 278 272 265 260 257 256 254 252 250 248 247 247 246 244 242 241 240 239 238 237 235 234 233 232 231 229 228 231 230 228 229 229 228 228 229 229 229 229 227 224 222 219 216 212 209 209 207 205 204 204 204 204 207 204 197 196 195 190 183 179 176 173 180 191 197 197 186 183 187 171 163 162 160 172 182 184 186 177 170 171
313 312 310 307 303 297 290 282 275 269 263 258 254 253 252 251 248 245 243 243 242 241 240 239 239 238 237 236 235 234 233 232 231 230 228 229 229 227 228 230 229 228 229 229 229 229 227 225 223 220 217 214 211 205 199 200 203 202 199 199 200 199 197 196 196 195 188 182 173 163 168 179 185 187 175 164 168 162 160 165 166 175 181 186 195 191 180 179
316 315 313 308 303 295 288 281 273 268 263 259 255 251 250 248 245 242 240 239 238 238 237 236 236 237 235 234 233 232 232 231 231 230 228 228 229 227 226 228 229 229 229 229 229 228 225 224 223 219 215 213 210 202 198 201 204 204 203 203 203 202 203 199 195 196 191 181 175 170 171 172 170 168 164 157 152 154 163 168 175 181 180 180 191 200 195 191
318 318 315 308 302 295 287 281 275 270 266 262 257 252 249 246 243 240 238 237 236 235 235 233 233 234 234 232 231 229 229 229 229 229 228 228 228 229 227 226 228 229 229 230 229 227 225 223 221 216 212 211 209 204 202 204 206 206 205 207 209 207 208 206 198 196 190 178 177 179 177 175 171 164 157 155 150 151 166 179 183 185 184 182 185 196 204 201
320 319 314 306 301 296 288 283 278 274 269 264 258 252 246 242 240 238 235 234 232 231 231 230 230 231 231 231 230 228 227 227 227 227 227 227 227 228 227 226 227 228 229 229 229 229 226 224 220 216 214 212 210 207 207 209 209 209 204 202 206 206 207 209 205 198 188 181 182 183 179 179 176 168 160 158 155 153 166 185 193 190 187 188 187 193 202 203
321 318 313 305 301 297 290 284 280 276 270 263 256 248 243 238 235 234 232 230 228 227 226 226 227 228 229 229 229 228 227 226 226 225 226 226 225 226 226 226 225 226 228 228 229 229 226 224 222 220 217 213 211 208 210 213 213 213 207 197 197 203 206 207 205 201 193 187 188 188 187 188 184 177 171 166 163 160 165 184 196 196 194 193 192 193 197 200
321 316 311 304 300 298 291 284 280 275 267 258 252 247 242 238 233 231 228 227 226 225 224 224 225 226 226 227 227 226 226 225 225 224 224 224 224 224 225 225 225 226 227 227 228 227 223 221 222 221 218 214 211 207 209 213 213 213 207 195 194 201 206 205 205 208 202 195 195 196 197 198 194 185 177 171 167 164 168 181 195 200 201 199 196 196 196 198
320 314 310 303 300 300 293 284 278 271 261 253 249 247 242 238 234 229 226 224 223 222 222 222 222 223 222 223 224 224 224 224 224 223 223 223 223 222 223 224 224 225 226 226 227 225 221 220 221 220 219 217 214 210 209 210 212 209 198 190 192 195 200 203 206 211 209 201 199 202 202 202 200 191 183 178 171 169 175 182 192 200 202 203 202 200 194 194
319 314 309 302 302 305 297 284 275 264 251 247 248 244 237 232 229 227 223 220 219 217 217 218 219 220 220 220 221 222 222 222 222 222 222 222 222 220 220 221 222 223 223 223 224 222 221 222 222 220 220 219 217 214 211 210 212 207 190 184 189 191 197 201 205 210 212 206 201 203 204 202 202 197 193 188 178 177 182 180 188 197 200 204 206 205 198 196
319 314 308 302 305 310 303 286 271 256 245 241 242 238 231 224 222 220 218 215 214 213 212 212 213 214 216 217 217 217 218 219 219 220 220 220 220 220 218 218 219 220 221 222 222 221 221 223 222 221 221 220 218 215 214 214 214 204 186 185 189 191 196 201 204 207 211 212 206 203 204 203 202 198 197 193 186 187 185 176 184 194 196 202 207 210 210 207
319 315 311 305 306 312 310 293 268 253 241 232 231 233 229 222 216 213 212 209 207 208 207 207 207 207 211 213 212 213 214 216 217 218 219 218 218 218 217 216 217 218 219 220 221 221 222 223 221 220 221 220 218 216 213 214 213 202 188 189 191 192 196 202 206 207 210 214 210 204 205 205 203 200 200 197 194 191 179 167 183 187 188 197 205 211 215 214
321 320 317 311 308 311 314 307 275 249 234 224 226 233 232 223 212 206 205 199 193 197 201 202 202 201 205 208 209 211 211 212 214 215 217 217 216 217 218 217 217 217 218 218 219 220 222 223 222 222 222 220 219 217 215 212 209 202 193 190 193 195 198 203 206 207 211 215 213 211 210 206 202 204 208 208 207 195 169 164 188 186 183 190 199 207 211 211
326 328 328 320 312 310 313 312 285 246 229 223 227 236 238 223 207 200 198 190 185 189 191 193 195 196 199 202 205 207 207 208 210 213 216 217 216 216 218 219 218 218 217 216 217 218 220 222 222 223 223 220 219 219 218 213 208 204 197 191 193 196 199 203 205 206 211 216 217 216 214 208 202 203 209 213 216 194 165 170 195 190 183 184 190 200 204 204
334 337 339 333 322 313 311 309 288 246 229 226 231 239 241 222 205 197 189 183 183 183 183 187 190 191 195 197 199 200 201 204 207 211 215 217 217 216 217 218 218 219 217 216 216 218 219 220 220 221 222 220 220 220 220 216 211 208 203 195 193 197 199 202 205 206 210 214 218 220 216 211 205 204 206 207 210 192 172 180 192 186 181 178 181 193 199 201
340 343 344 342 334 323 315 305 287 248 228 228 233 239 239 219 203 195 185 182 183 180 179 184 186 187 192 194 195 195 196 201 206 210 215 217 218 218 217 218 219 219 218 216 216 217 217 219 220 221 221 220 219 219 219 218 214 212 210 202 197 197 200 203 205 207 209 210 214 219 218 215 210 209 211 212 212 202 189 195 195 191 189 184 181 186 192 197
346 347 345 343 340 335 324 305 287 253 230 230 234 238 237 217 201 194 189 187 185 181 181 184 184 184 186 191 196 198 198 202 206 208 212 216 218 218 218 219 220 220 219 217 216 216 216 217 219 220 221 220 219 218 219 218 216 214 213 210 204 200 200 203 205 208 209 208 212 216 218 217 211 208 212 211 209 207 206 213 213 205 200 193 189 188 188 189
353 353 349 345 339 336 332 314 290 260 235 232 235 238 237 218 203 196 192 189 187 183 182 184 184 183 184 188 196 200 202 206 207 207 209 213 215 215 215 217 218 219 219 217 214 215 216 214 215 217 219 219 219 219 219 220 219 215 213 213 210 206 204 205 206 208 209 209 212 216 217 217 211 207 210 207 203 202 198 203 212 209 205 201 197 196 196 194
0 0 357 350 339 333 335 326 302 265 241 235 239 234 221 212 206 201 195 190 189 187 187 190 191 189 188 189 195 201 202 206 208 207 209 212 213 214 214 215 216 217 217 216 213 215 215 211 211 217 219 218 218 218 219 220 219 218 215 212 210 207 206 207 208 209 209 209 213 216 218 218 214 212 213 209 207 202 193 194 197 195 197 201 200 202 208 208
6 8 8 2 351 341 339 337 337 313 254 247 244 220 206 209 211 208 203 196 193 193 195 200 203 201 196 192 195 201 202 203 208 209 209 211 212 212 212 214 216 216 217 216 212 212 213 210 211 215 218 218 217 217 218 219 218 218 216 212 210 209 206 206 209 210 210 210 213 216 219 220 219 218 217 215 214 208 198 196 195 193 196 205 211 213 215 218
11 15 17 15 9 2 0 0 6 43 57 64 150 193 201 213 217 217 214 206 200 201 203 206 211 211 207 202 200 202 204 204 206 208 209 209 210 210 209 210 214 216 217 217 214 212 211 210 210 212 215 217 217 215 216 218 218 220 219 216 215 213 210 209 209 211 211 210 212 216 219 221 222 222 220 218 218 215 208 205 207 208 210 215 218 214 209 211
12 16 18 20 21 21 21 21 27 76 106 119 161 192 209 222 226 228 226 219 212 212 211 213 218 220 219 217 214 211 211 209 207 209 210 209 210 211 210 209 211 214 217 217 215 212 210 209 208 209 212 215 216 213 212 214 217 220 221 221 218 215 213 213 212 213 213 210 211 215 218 221 222 223 222 220 220 221 219 216 216 218 219 222 218 202 195 197
13 16 17 18 20 24 33 40 46 65 106 134 155 184 212 223 225 227 226 222 222 224 221 214 213 219 223 225 224 220 217 215 213 213 214 215 214 214 213 211 210 212 215 217 215 212 209 208 207 208 210 213 214 212 209 211 215 217 219 221 220 217 215 214 214 216 217 214 212 213 215 219 222 223 223 222 221 223 223 222 220 219 220 222 213 197 193 195
16 16 16 17 16 19 33 49 56 57 62 91 134 182 223 231 228 226 221 216 218 226 230 218 205 211 224 228 228 227 226 225 221 219 219 221 222 220 219 217 214 214 215 216 216 212 208 207 206 207 209 209 211 210 207 209 213 215 216 218 219 219 219 216 214 217 219 219 217 215 214 216 220 222 222 222 223 224 225 225 223 219 217 216 209 201 200 199
14 12 11 15 16 16 25 42 52 54 54 58 81 215 248 249 238 231 227 220 216 218 225 226 216 215 227 233 232 232 235 235 230 224 221 221 223 224 222 220 218 217 217 216 215 212 209 206 204 206 209 208 207 209 209 209 211 214 216 217 218 219 219 218 216 216 217 219 221 221 218 217 219 222 223 223 224 225 224 223 223 218 215 213 207 201 200 198
4 4 3 9 13 11 15 28 34 37 44 52 59 179 252 261 242 228 228 229 224 217 217 225 231 234 240 244 239 227 224 228 226 220 219 218 219 223 224 223 222 221 220 219 215 211 208 206 203 205 209 209 207 208 210 209 211 214 216 217 218 219 219 219 219 218 216 216 219 222 222 220 220 222 223 223 223 221 215 211 213 214 212 210 206 201 199 197
354 351 351 360 7 5 4 15 21 18 19 26 27 15 321 300 242 210 217 228 231 222 214 217 229 240 243 243 238 214 202 210 215 216 218 218 217 218 219 219 220 221 222 221 217 212 207 204 203 203 208 211 209 209 210 210 211 214 215 216 217 217 218 219 221 222 219 215 216 219 219 219 220 222 221 218 216 211 202 201 206 209 208 207 204 203 202 198
357 350 344 348 358 1 1 7 14 10 3 2 3 359 353 355 49 168 191 206 215 216 213 215 222 230 230 224 218 206 200 205 210 214 219 220 218 215 211 210 210 212 216 217 216 213 208 204 202 202 206 211 210 210 211 212 212 213 214 214 214 213 215 217 219 220 219 217 217 217 216 216 218 219 217 212 208 204 200 202 205 204 203 204 202 203 205 202
357 347 340 343 349 353 359 2 6 10 358 348 349 353 350 349 0 71 184 194 199 205 212 216 218 222 224 221 211 203 203 206 209 214 218 221 222 218 212 209 208 208 211 213 213 213 211 207 203 202 206 210 212 212 212 213 213 214 214 215 215 214 213 215 217 218 217 216 217 216 214 215 217 217 214 210 205 202 201 203 205 203 201 202 202 203 206 207
3 352 343 345 349 350 357 9 23 45 37 349 345 354 344 329 320 302 252 232 222 216 217 221 223 226 230 233 230 219 212 211 213 217 221 225 228 225 219 216 214 212 213 214 214 214 213 210 207 205 206 210 213 214 213 214 215 215 216 217 219 218 216 216 217 217 216 215 215 215 214 214 215 215 214 210 203 202 204 203 204 203 201 201 203 204 205 208
13 12 8 2 1 2 4 11 23 40 50 5 328 329 322 305 295 285 267 257 251 244 240 237 237 238 237 239 240 237 232 227 226 226 227 229 232 232 229 226 223 221 220 219 219 219 218 215 211 209 208 209 213 215 214 215 215 216 216 216 217 218 217 216 216 217 217 216 216 216 214 215 216 215 215 211 202 201 204 203 203 205 203 203 205 205 205 207
24 27 27 22 17 17 15 13 14 17 19 6 343 332 322 308 296 289 282 275 268 260 255 253 252 250 247 243 242 243 245 245 242 240 239 239 239 239 238 235 232 231 229 227 225 224 224 221 217 214 211 210 212 215 216 216 216 216 217 216 216 217 217 216 216 217 218 218 220 219 216 216 217 216 215 213 207 205 205 204 205 208 207 205 205 205 205 206
37 36 37 37 35 32 28 24 19 14 7 360 352 342 331 321 311 303 297 290 281 271 266 263 261 258 256 253 250 250 252 252 252 251 250 249 247 246 244 242 241 239 237 235 232 230 230 228 223 221 217 214 214 215 217 217 217 217 218 218 217 218 218 218 217 217 217 218 220 221 218 218 218 217 216 216 214 212 211 211 208 207 207 206 205 204 204 205
38 39 39 42 47 45 38 31 26 18 9 3 358 352 344 335 323 309 298 288 281 276 271 267 266 265 264 262 257 253 252 252 253 254 255 254 254 253 251 250 249 248 245 243 241 237 235 234 230 226 224 220 217 217 218 218 217 216 217 220 221 221 221 221 221 219 216 216 219 220 219 220 220 218 217 218 218 215 214 214 210 205 205 207 207 205 204 205
29 33 34 35 40 42 39 36 33 27 21 18 13 7 2 356 345 330 313 294 282 275 270 267 266 265 263 261 258 254 254 254 254 255 256 256 256 256 256 256 256 255 251 249 248 246 243 241 238 234 231 226 221 219 220 220 219 218 217 219 222 224 224 224 224 222 219 217 218 219 220 220 220 219 218 218 219 217 214 214 212 207 206 207 209 209 205 205
18 21 24 26 28 30 32 33 32 30 27 24 19 16 16 13 8 1 351 333 309 289 276 267 262 257 254 254 255 257 257 256 255 256 257 257 258 258 257 258 258 258 256 254 253 251 250 248 246 243 240 235 228 223 221 220 221 222 221 220 222 224 224 222 222 223 222 221 220 219 220 221 220 219 219 218 219 218 216 214 215 214 211 210 211 211 208 206